Precipitable_Water
1.77 1.69 1.71 1.46 0.99 1.05 0.97 1.15 1.39 1.32 1.37 1.51 1.44 1.27 1.16 1.23 1.09 0.86 1.44 1.46 1.54 1.67 1.78 1.83 1.82 1.84 1.68 1.67 1.70 1.61 1.60 1.52 1.56 1.60 1.66 1.72 1.77 1.65 1.76 1.78 1.67 1.78 1.69 1.66 1.71 1.72 1.74 1.77 1.73
1.76 1.74 1.62 1.35 0.98 0.91 1.04 1.33 1.30 1.49 1.54 1.59 1.50 1.48 1.31 1.20 1.52 1.34 1.30 1.47 1.56 1.70 1.77 1.79 1.80 1.86 1.79 1.69 1.73 1.61 1.52 1.58 1.66 1.74 1.79 1.85 1.85 1.85 1.81 1.83 1.68 1.79 1.93 1.78 1.73 1.77 1.77 1.79 1.75
1.92 1.98 1.48 1.24 1.07 0.96 1.08 1.37 1.35 1.58 1.72 1.59 1.50 1.68 1.52 1.41 1.48 1.33 1.48 1.50 1.57 1.68 1.75 1.73 1.81 1.87 1.89 1.73 1.65 1.56 1.64 1.67 1.74 1.78 1.77 1.72 1.70 1.67 1.69 1.69 1.74 1.71 1.71 1.88 1.70 1.77 1.82 1.80 1.87
1.93 1.84 1.65 1.17 1.07 1.29 1.37 1.45 1.54 1.50 1.71 1.72 1.64 1.45 1.71 1.82 1.48 1.52 1.55 1.55 1.53 1.61 1.71 1.74 1.81 1.81 1.66 1.59 1.58 1.68 1.74 1.80 1.81 1.72 1.66 1.53 1.54 1.66 1.68 1.78 1.72 1.65 1.58 1.63 1.68 1.78 1.76 1.90 2.03
1.99 1.67 1.20 1.12 1.21 1.42 1.54 1.61 1.66 1.54 1.60 1.59 1.63 1.42 1.50 1.74 1.69 1.58 1.52 1.53 1.45 1.54 1.64 1.73 1.82 1.72 1.62 1.57 1.62 1.78 1.72 1.73 1.76 1.65 1.58 1.54 1.68 1.86 1.87 1.78 1.77 1.80 1.55 1.63 1.71 1.76 1.80 1.88 2.01
1.52 1.55 1.09 0.98 1.14 1.40 1.56 1.66 1.72 1.56 1.57 1.60 1.58 1.48 1.48 1.76 1.55 1.53 1.56 1.52 1.55 1.52 1.62 1.70 1.61 1.51 1.54 1.69 1.76 1.79 1.69 1.74 1.60 1.56 1.52 1.58 1.79 1.87 1.79 1.65 1.56 1.43 1.50 1.61 1.67 1.78 1.93 1.95 2.05
1.42 1.29 1.04 1.07 1.11 1.25 1.42 1.70 1.57 1.51 1.51 1.49 1.64 1.34 1.52 1.55 1.55 1.57 1.57 1.58 1.56 1.60 1.56 1.57 1.38 1.65 1.78 1.74 1.82 1.85 1.73 1.58 1.46 1.45 1.55 1.58 1.83 1.89 1.70 1.57 1.54 1.52 1.57 1.64 1.69 1.89 1.98 1.93 1.87
1.57 1.32 1.09 1.09 1.04 1.18 1.55 1.65 1.80 1.60 1.51 1.76 1.66 1.24 1.23 1.47 1.56 1.56 1.57 1.55 1.54 1.58 1.57 1.44 1.56 1.69 1.72 1.82 1.79 1.74 1.58 1.49 1.47 1.42 1.42 1.60 1.79 1.92 1.75 1.67 1.52 1.50 1.61 1.63 1.70 1.76 1.86 1.90 1.83
1.69 1.14 0.96 1.00 1.05 1.20 1.58 1.54 1.77 1.83 1.61 1.59 1.58 1.48 1.54 1.59 1.59 1.48 1.44 1.46 1.44 1.47 1.38 1.35 1.52 1.58 1.68 1.72 1.73 1.65 1.50 1.34 1.42 1.43 1.45 1.60 1.67 1.78 1.77 1.76 1.69 1.58 1.65 1.68 1.79 1.89 1.92 1.82 1.78
1.34 1.08 1.03 1.23 1.24 1.21 1.43 1.58 1.71 1.63 1.50 1.46 1.52 1.59 1.62 1.61 1.51 1.35 1.31 1.28 1.26 1.21 1.21 1.40 1.45 1.52 1.64 1.68 1.67 1.50 1.45 1.46 1.48 1.51 1.48 1.54 1.62 1.65 1.78 1.78 1.75 1.72 1.64 1.67 1.75 1.83 1.86 1.74 1.68
1.28 1.04 1.20 1.22 1.29 1.36 1.35 1.43 1.64 1.54 1.42 1.57 1.43 1.47 1.55 1.51 1.47 1.37 1.35 1.30 1.11 1.11 1.20 1.35 1.41 1.51 1.57 1.61 1.52 1.39 1.46 1.64 1.55 1.57 1.51 1.50 1.53 1.57 1.62 1.66 1.77 1.80 1.74 1.62 1.67 1.75 1.72 1.69 1.66
1.03 1.14 1.16 1.14 1.26 1.25 1.27 1.42 1.45 1.52 1.55 1.73 1.64 1.62 1.56 1.46 1.43 1.37 1.28 1.18 1.16 1.12 1.14 1.27 1.40 1.46 1.53 1.57 1.41 1.41 1.44 1.60 1.63 1.59 1.58 1.65 1.61 1.63 1.57 1.58 1.68 1.74 1.74 1.66 1.57 1.60 1.65 1.69 1.67
0.91 1.04 1.07 1.07 1.05 1.20 1.36 1.30 1.40 1.48 1.73 1.77 1.73 1.65 1.58 1.47 1.43 1.43 1.36 1.38 1.37 1.22 1.14 1.17 1.34 1.42 1.48 1.43 1.37 1.40 1.47 1.72 1.68 1.65 1.67 1.75 1.67 1.58 1.65 1.54 1.56 1.57 1.60 1.64 1.61 1.72 1.71 1.66 1.67
0.94 0.91 0.90 0.90 0.83 1.07 1.20 1.24 1.44 1.59 1.75 1.71 1.68 1.60 1.58 1.50 1.43 1.45 1.47 1.41 1.33 1.29 1.13 1.16 1.27 1.41 1.46 1.36 1.37 1.33 1.60 1.82 1.77 1.71 1.72 1.85 1.95 1.87 1.77 1.62 1.58 1.57 1.55 1.57 1.66 1.67 1.71 1.65 1.60
0.95 0.72 0.72 0.71 0.82 0.90 1.20 1.10 1.21 1.66 1.71 1.61 1.69 1.63 1.59 1.54 1.52 1.49 1.51 1.38 1.29 1.22 1.23 1.14 1.24 1.39 1.40 1.35 1.51 1.44 1.65 1.74 1.75 1.85 1.84 1.82 1.86 1.88 1.85 1.78 1.58 1.53 1.52 1.57 1.58 1.61 1.68 1.61 1.57
0.73 0.65 0.55 0.68 0.83 1.05 1.10 0.88 1.25 1.62 1.61 1.58 1.64 1.59 1.58 1.56 1.52 1.57 1.56 1.44 1.30 1.17 1.12 1.15 1.31 1.34 1.39 1.42 1.50 1.50 1.67 1.79 1.81 1.88 1.86 1.96 1.91 1.85 1.77 1.77 1.62 1.58 1.58 1.55 1.54 1.55 1.55 1.58 1.54
0.56 0.49 0.52 0.53 0.92 0.94 1.01 0.92 1.23 1.54 1.53 1.47 1.57 1.55 1.51 1.52 1.49 1.54 1.53 1.44 1.25 1.17 1.18 1.20 1.30 1.28 1.41 1.50 1.57 1.59 1.66 1.73 1.83 1.88 1.90 1.94 1.93 1.88 1.81 1.65 1.58 1.47 1.40 1.40 1.40 1.48 1.57 1.54 1.53
0.36 0.45 0.50 0.47 0.74 0.87 0.84 0.81 1.08 1.36 1.45 1.45 1.49 1.48 1.42 1.44 1.41 1.50 1.49 1.42 1.27 1.28 1.33 1.42 1.41 1.38 1.44 1.53 1.66 1.61 1.59 1.66 1.84 1.85 1.90 1.91 1.93 1.91 1.80 1.61 1.58 1.51 1.34 1.32 1.37 1.39 1.46 1.47 1.46
0.45 0.44 0.47 0.48 0.57 0.55 0.53 0.60 0.77 1.16 1.36 1.43 1.49 1.43 1.35 1.34 1.44 1.51 1.51 1.43 1.34 1.35 1.35 1.47 1.52 1.48 1.44 1.50 1.48 1.46 1.43 1.60 1.71 1.78 1.91 1.98 1.91 1.83 1.77 1.69 1.57 1.54 1.34 1.29 1.32 1.32 1.32 1.31 1.39
0.46 0.41 0.46 0.51 0.53 0.51 0.51 0.59 0.82 1.01 1.21 1.37 1.42 1.44 1.44 1.35 1.36 1.40 1.44 1.38 1.30 1.31 1.33 1.45 1.53 1.54 1.53 1.56 1.56 1.50 1.52 1.62 1.70 1.79 1.81 1.86 1.91 1.83 1.73 1.67 1.49 1.52 1.38 1.31 1.30 1.26 1.28 1.23 1.24
0.43 0.38 0.43 0.45 0.46 0.52 0.60 0.57 0.73 0.96 1.23 1.36 1.48 1.50 1.50 1.44 1.27 1.34 1.39 1.37 1.31 1.28 1.31 1.37 1.48 1.55 1.55 1.49 1.47 1.52 1.48 1.58 1.65 1.69 1.75 1.83 1.85 1.82 1.75 1.66 1.58 1.48 1.45 1.31 1.29 1.30 1.26 1.11 1.10
0.38 0.47 0.43 0.43 0.39 0.28 0.54 0.31 0.57 0.82 0.94 1.17 1.34 1.41 1.45 1.48 1.33 1.37 1.39 1.34 1.31 1.28 1.37 1.40 1.42 1.52 1.53 1.52 1.41 1.39 1.33 1.32 1.61 1.63 1.77 1.68 1.72 1.81 1.70 1.63 1.59 1.53 1.45 1.32 1.31 1.37 1.36 1.15 0.95
0.41 0.48 0.44 0.44 0.38 0.33 0.33 0.36 0.38 0.78 0.78 1.02 1.24 1.33 1.40 1.40 1.28 1.33 1.42 1.41 1.39 1.39 1.37 1.40 1.38 1.45 1.48 1.44 1.44 1.34 1.32 1.38 1.58 1.63 1.69 1.62 1.69 1.76 1.76 1.65 1.60 1.59 1.52 1.46 1.39 1.37 1.38 1.22 1.14
0.48 0.41 0.39 0.39 0.36 0.25 0.29 0.28 0.25 0.51 0.76 0.90 1.16 1.31 1.39 1.42 1.34 1.37 1.45 1.46 1.36 1.38 1.41 1.41 1.35 1.37 1.48 1.42 1.42 1.30 1.26 1.29 1.43 1.51 1.53 1.57 1.61 1.65 1.75 1.82 1.77 1.63 1.52 1.48 1.39 1.41 1.44 1.36 1.28
0.34 0.32 0.24 0.24 0.25 0.23 0.32 0.26 0.28 0.49 0.59 0.69 0.93 1.14 1.35 1.46 1.47 1.40 1.37 1.31 1.29 1.30 1.35 1.38 1.32 1.33 1.48 1.42 1.42 1.37 1.29 1.29 1.32 1.47 1.51 1.56 1.45 1.52 1.57 1.65 1.71 1.62 1.61 1.59 1.50 1.40 1.40 1.42 1.36
0.28 0.28 0.23 0.16 0.20 0.25 0.31 0.24 0.30 0.50 0.58 0.64 0.79 1.07 1.26 1.43 1.50 1.48 1.41 1.36 1.24 1.26 1.31 1.35 1.31 1.28 1.40 1.39 1.37 1.42 1.36 1.31 1.28 1.36 1.44 1.51 1.49 1.51 1.69 1.70 1.68 1.64 1.58 1.55 1.64 1.50 1.43 1.45 1.45
0.29 0.25 0.33 0.25 0.26 0.22 0.26 0.31 0.37 0.45 0.50 0.55 0.64 0.78 0.96 1.29 1.41 1.50 1.47 1.36 1.31 1.24 1.25 1.29 1.34 1.31 1.36 1.36 1.38 1.37 1.36 1.28 1.23 1.33 1.46 1.50 1.56 1.53 1.67 1.79 1.68 1.63 1.66 1.58 1.57 1.52 1.41 1.46 1.45
0.33 0.35 0.26 0.27 0.18 0.17 0.23 0.29 0.31 0.34 0.39 0.55 0.64 0.71 0.82 1.05 1.33 1.47 1.55 1.39 1.39 1.34 1.31 1.35 1.41 1.35 1.34 1.34 1.39 1.36 1.35 1.27 1.22 1.31 1.39 1.47 1.51 1.59 1.56 1.66 1.69 1.61 1.62 1.63 1.51 1.49 1.50 1.45 1.43
0.29 0.30 0.31 0.31 0.26 0.19 0.18 0.26 0.37 0.33 0.42 0.53 0.74 0.83 0.79 0.99 1.14 1.42 1.55 1.56 1.49 1.47 1.40 1.40 1.42 1.45 1.37 1.40 1.40 1.38 1.34 1.33 1.24 1.20 1.31 1.38 1.46 1.47 1.49 1.53 1.65 1.66 1.66 1.63 1.61 1.51 1.44 1.40 1.36
0.34 0.31 0.33 0.28 0.26 0.26 0.26 0.26 0.33 0.35 0.41 0.61 0.78 0.94 0.97 1.08 1.18 1.40 1.60 1.67 1.60 1.52 1.49 1.43 1.47 1.48 1.45 1.44 1.46 1.42 1.37 1.35 1.25 1.12 1.17 1.31 1.32 1.39 1.46 1.48 1.53 1.61 1.63 1.65 1.59 1.54 1.51 1.39 1.37
Wind_Speed
7 7 4 1 1 2 4 3 3 4 6 6 14 10 10 6 5 4 13 17 19 18 17 16 15 15 14 14 12 11 10 10 9 9 8 7 7 6 5 5 5 5 5 6 7 8 8 8 9
8 6 2 1 1 3 4 2 6 6 5 14 10 9 7 6 5 9 16 19 19 18 17 16 15 14 13 13 12 10 10 10 10 9 9 8 8 7 6 6 6 6 6 7 8 8 9 9 10
8 3 1 1 2 3 6 2 11 7 9 11 8 7 6 4 6 17 17 20 19 18 17 16 14 13 13 12 11 11 10 10 9 9 9 9 9 9 9 8 7 8 8 10 10 10 10 10 10
5 2 1 2 4 5 5 5 4 13 9 9 8 7 5 4 13 14 19 20 19 17 17 15 14 12 13 12 11 10 10 9 9 9 9 10 10 11 12 11 12 11 11 11 11 11 11 11 11
3 1 1 3 3 5 7 5 4 13 10 11 6 5 7 7 13 19 20 19 18 17 16 14 13 12 12 11 10 10 9 9 9 9 10 11 12 12 13 13 13 12 12 13 13 13 12 13 14
2 2 1 4 6 5 8 4 8 13 8 10 7 9 8 13 18 20 19 18 17 16 15 14 13 12 11 10 10 9 9 9 9 9 10 11 12 13 13 14 14 14 15 15 15 15 14 14 13
3 2 1 4 6 4 3 4 8 9 8 7 9 7 9 15 19 19 19 17 16 15 14 13 12 11 11 10 10 9 9 9 9 10 11 11 12 13 14 14 15 16 16 16 16 16 16 15 14
5 2 0 3 7 6 4 5 7 9 7 8 9 7 13 19 20 19 18 17 15 14 13 12 12 11 11 10 10 9 9 9 9 10 11 11 11 12 13 14 15 16 16 16 16 15 14 14 13
6 3 1 2 5 5 6 5 8 5 7 6 7 8 18 22 20 19 18 16 15 14 13 13 12 11 11 10 10 9 9 9 10 11 11 11 11 12 12 13 14 14 14 15 15 14 14 14 13
8 5 4 1 2 3 5 5 7 6 7 7 8 14 20 21 19 19 17 16 15 15 14 13 12 12 11 11 10 10 10 10 10 11 11 11 12 12 11 12 13 13 13 13 13 13 13 13 13
10 7 5 2 1 3 4 2 7 6 6 8 13 18 19 19 18 18 17 16 15 15 14 13 13 12 12 11 11 10 10 10 10 11 11 11 12 12 12 12 12 12 12 12 12 11 11 11 12
11 11 9 4 2 1 2 3 3 7 5 11 15 17 18 18 19 18 17 16 15 15 14 14 13 12 12 12 11 11 11 10 10 10 11 11 11 11 11 11 11 11 11 10 11 10 10 10 10
14 12 10 9 6 5 4 2 3 7 5 12 17 16 17 18 18 17 16 16 15 15 14 14 14 13 13 12 11 11 10 9 9 9 9 9 9 9 9 9 9 9 9 10 10 10 11 10 10
13 12 13 11 7 7 6 3 3 6 9 14 18 17 17 18 18 17 16 16 16 15 15 15 14 14 14 13 12 11 10 9 9 8 8 8 7 7 7 7 8 8 8 9 9 10 9 9 10
12 9 9 9 8 8 8 5 6 7 11 12 17 17 16 17 18 18 17 16 16 16 16 16 15 15 14 14 12 11 10 9 9 8 7 7 5 5 5 6 7 8 8 8 8 8 8 9 9
11 9 7 7 9 8 8 7 5 9 11 13 17 18 17 18 18 18 17 16 16 16 17 17 16 16 15 14 13 11 10 9 9 7 7 6 4 5 5 6 6 7 7 8 7 8 8 9 9
11 11 10 7 9 8 9 7 8 8 10 14 17 17 17 18 18 19 18 17 16 17 18 18 17 17 16 15 13 12 11 9 9 7 6 5 5 5 6 6 7 7 7 7 7 8 9 8 8
14 13 10 8 9 9 11 11 9 11 11 13 15 18 18 19 20 19 19 18 18 18 18 18 17 17 17 15 14 12 11 10 9 7 6 5 5 6 6 6 7 7 7 7 7 7 8 8 7
14 14 13 12 10 9 11 12 13 14 14 11 15 16 17 18 20 20 20 20 20 20 20 19 18 16 17 16 14 13 12 11 9 8 7 6 6 6 6 6 7 7 6 7 7 8 7 7 6
16 15 14 14 12 11 9 10 12 15 16 16 15 17 16 16 20 21 21 21 22 22 22 20 19 18 17 16 14 13 13 12 10 9 8 7 6 5 6 6 6 6 6 7 7 6 6 6 7
15 14 16 15 12 10 10 9 9 12 14 15 16 16 16 17 21 23 22 22 22 23 23 22 21 19 18 16 15 15 14 12 11 10 8 7 7 6 6 6 6 5 6 6 7 6 6 6 7
15 16 16 15 12 13 10 10 9 12 16 14 16 15 16 18 21 24 24 23 22 23 24 24 22 21 19 17 16 17 15 13 12 10 9 8 7 7 6 6 7 6 6 6 7 6 6 7 6
16 16 17 16 15 12 11 9 10 9 14 19 17 17 16 18 22 23 25 25 24 23 23 25 24 22 20 19 17 17 16 14 13 12 11 9 8 7 7 7 7 6 6 6 7 7 6 6 6
16 14 12 13 13 12 15 11 10 8 10 12 19 19 19 19 21 22 25 25 25 24 24 24 26 24 22 20 18 18 18 16 15 14 12 11 9 8 8 7 6 6 6 6 6 7 7 6 7
17 15 14 13 14 16 14 11 12 10 9 13 16 20 22 22 22 23 24 25 26 25 25 24 27 26 24 22 20 19 19 18 17 16 14 12 11 9 8 8 7 6 6 6 6 7 7 7 7
20 19 16 15 17 17 14 15 14 9 9 6 11 16 19 24 23 22 24 25 25 26 27 26 27 27 26 24 22 20 20 19 18 18 16 14 12 11 9 8 8 7 7 6 6 7 7 8 7
18 18 19 13 12 13 17 15 15 9 8 7 6 13 17 21 26 23 23 26 25 26 27 27 26 28 27 26 24 22 21 21 20 19 18 16 14 13 12 10 9 9 8 7 6 7 7 7 8
17 17 16 15 15 14 13 13 15 12 12 11 9 10 15 18 23 25 24 24 26 26 27 27 27 28 29 27 26 24 22 22 21 21 20 18 15 14 14 12 12 10 9 8 7 7 7 7 8
16 16 16 17 16 17 15 15 13 14 13 12 11 10 13 17 19 22 25 24 25 27 27 28 28 27 30 29 27 25 24 23 23 23 23 20 18 16 15 14 14 13 11 10 8 7 7 7 8
12 15 18 18 19 16 17 16 13 13 12 10 9 7 7 11 15 18 21 23 23 25 26 28 28 28 29 31 29 28 26 25 25 25 25 23 22 19 17 16 16 15 14 12 11 10 9 9 9
Wind_Direction
154 155 160 188 280 288 278 266 227 156 145 151 148 138 144 110 107 98 134 141 141 141 138 133 129 125 123 122 117 111 106 103 100 93 87 82 81 86 91 98 107 113 121 125 121 117 112 109 107
145 146 149 148 337 306 298 242 175 117 130 145 132 130 130 118 82 122 135 143 142 141 140 135 131 128 126 124 118 111 106 102 96 89 81 74 77 78 83 93 101 111 118 122 122 119 112 108 108
144 139 133 331 315 294 311 235 198 165 132 153 144 127 133 114 102 135 139 142 143 142 141 138 133 128 128 127 119 112 107 100 92 84 77 71 74 77 82 84 94 103 117 116 119 118 112 109 112
149 110 66 6 300 298 307 223 240 184 148 148 144 132 133 129 135 140 141 142 142 142 142 139 135 129 127 125 120 113 106 99 92 83 74 74 76 83 83 81 92 98 109 115 116 114 110 108 112
152 138 30 355 5 343 332 233 235 161 145 149 139 137 142 138 141 143 143 143 143 143 143 141 137 133 130 126 121 115 107 102 93 83 77 81 85 87 85 83 88 93 105 111 112 111 110 109 107
164 128 46 3 2 27 55 78 127 140 143 150 135 134 138 145 146 147 146 145 146 145 145 142 139 137 133 128 124 117 109 104 94 85 86 90 89 88 88 84 84 92 103 108 110 109 107 110 108
189 192 313 359 5 19 23 101 128 137 151 143 145 143 147 151 150 150 149 147 148 148 147 145 143 140 137 132 126 118 111 104 96 92 94 97 93 89 89 88 88 93 101 106 109 108 103 102 103
194 188 263 7 13 34 63 130 145 128 123 135 144 145 158 156 153 152 151 151 151 151 151 149 147 144 141 136 129 121 112 106 100 97 99 99 97 94 93 90 91 96 101 105 107 108 106 102 98
203 206 235 352 22 47 113 102 132 129 135 134 146 145 151 153 153 154 155 155 156 155 155 153 150 147 145 141 133 124 116 110 104 101 102 100 100 98 97 94 94 99 103 107 108 107 104 99 94
203 205 213 236 21 45 140 123 157 159 146 125 126 135 151 155 157 159 160 162 161 160 159 157 154 151 149 144 137 128 121 114 109 105 104 102 100 101 101 98 100 101 107 111 111 108 104 99 95
210 210 203 228 48 89 142 126 166 165 177 169 154 151 156 161 162 164 166 166 164 163 163 162 159 156 153 149 143 134 127 120 113 110 107 104 102 98 100 99 102 102 106 111 113 110 102 104 100
220 222 230 244 225 211 180 168 196 194 186 172 166 161 162 167 169 170 170 169 168 167 167 166 164 161 158 154 149 141 136 128 120 116 113 108 106 101 100 99 101 104 106 111 114 110 108 106 105
221 228 236 244 244 243 182 185 217 192 183 171 167 168 169 171 174 173 173 173 174 173 173 171 168 166 162 159 155 149 143 137 131 125 122 114 114 109 103 103 106 104 111 111 112 108 110 106 107
219 227 242 244 241 213 203 219 170 174 164 168 172 175 175 176 177 176 178 179 180 179 177 174 173 170 167 163 159 156 151 144 138 134 127 126 121 122 111 110 110 108 110 121 117 113 110 105 106
219 228 233 229 221 210 197 202 217 188 176 168 183 183 180 182 182 184 183 183 183 184 182 180 176 173 170 168 164 161 156 150 147 142 133 133 126 133 129 119 119 114 110 118 124 123 121 111 110
214 213 215 220 207 205 211 216 200 184 187 184 178 183 185 187 188 187 187 185 185 184 182 180 178 176 174 174 170 167 163 156 153 148 145 143 130 134 133 134 129 126 118 119 117 121 124 122 113
218 210 213 223 207 203 203 214 199 195 189 184 187 189 191 191 192 190 189 187 185 181 177 177 176 178 176 174 175 173 170 165 163 156 146 152 139 135 137 134 133 132 129 124 119 121 124 125 123
212 209 213 221 212 212 208 226 210 204 191 191 191 191 192 195 196 193 190 190 187 183 181 179 178 178 180 181 180 180 180 174 171 168 154 151 153 143 138 135 140 139 134 130 125 128 126 128 125
215 211 213 220 217 219 224 231 218 207 200 185 190 191 193 198 197 194 193 192 191 188 187 185 183 182 182 182 181 182 181 180 175 172 166 157 149 151 141 138 144 146 142 143 132 129 133 129 127
216 215 220 226 215 217 224 235 224 209 210 204 194 197 201 200 198 196 195 194 195 193 192 191 189 186 185 186 187 186 183 181 178 174 169 166 162 153 158 146 143 147 149 153 152 141 137 132 135
215 214 217 220 232 223 217 223 215 212 208 210 210 210 210 207 200 199 198 197 197 197 197 196 194 192 191 190 190 187 183 180 176 176 178 171 167 156 155 158 156 153 161 157 157 151 149 145 146
219 216 215 221 221 222 223 226 227 211 211 215 212 213 215 211 204 201 201 200 199 200 199 199 198 196 195 193 191 189 188 186 187 182 180 173 171 162 152 162 162 154 156 159 159 157 153 155 155
216 211 211 216 221 224 224 214 225 214 220 222 218 216 213 209 205 204 205 203 203 202 201 202 201 200 199 197 196 194 193 192 188 186 185 178 175 173 168 156 157 159 165 167 176 171 160 165 167
207 207 213 218 218 224 220 207 231 216 223 229 222 221 215 211 206 207 207 206 205 204 202 203 202 203 202 201 201 200 199 197 193 192 191 188 184 181 180 174 170 166 161 165 172 175 173 170 165
208 205 218 219 220 221 218 209 219 239 241 240 221 221 218 212 210 211 207 205 206 205 205 205 205 205 206 205 205 204 203 202 201 198 198 195 193 188 184 182 176 173 171 171 164 176 182 170 167
210 205 208 214 217 219 217 220 215 233 239 247 228 219 215 213 208 209 206 205 205 206 207 207 207 207 207 208 209 208 208 207 207 205 204 204 201 198 192 189 186 177 174 173 173 177 178 182 180
212 211 215 206 223 215 224 231 224 258 249 263 259 221 215 214 211 211 208 207 207 207 208 208 209 210 210 211 212 211 211 210 210 207 206 205 206 205 205 203 197 193 187 180 179 180 185 189 189
211 215 211 218 211 215 223 220 232 250 260 262 268 250 227 216 214 215 211 209 210 210 210 211 212 212 212 213 214 214 213 214 213 210 209 210 211 211 210 209 205 202 199 194 189 191 191 195 197
219 221 220 213 217 213 215 228 235 242 249 254 258 257 233 216 213 212 213 214 214 214 213 214 214 215 214 215 215 216 216 216 216 216 214 214 214 215 212 211 209 208 208 207 205 203 205 205 207
207 217 216 216 221 223 221 228 233 239 244 249 252 238 220 211 212 211 211 212 213 214 215 216 217 216 216 217 218 218 219 219 219 219 219 218 219 218 216 215 214 214 216 218 220 221 219 219 220